Weather History for KOXI - May, 2013

Change the Weather History Date:

Sunday, May 19, 2013

  Actual Average (KVPZ) Record (KVPZ)
Temperature  
Mean Temperature 72 °F 60 °F  
Max Temperature 88 °F 71 °F 90 °F (1998)
Min Temperature 57 °F 49 °F 36 °F (2002)
Degree Days  
Heating Degree Days 0 6  
Month to date heating degree days 162  
Since 1 July heating degree days 6221  
Cooling Degree Days 6 2  
Month to date cooling degree days 16  
Year to date cooling degree days 21  
Growing Degree Days 22 (Base 50)    
Moisture  
Dew Point 60 °F    
Average Humidity 65    
Maximum Humidity 94    
Minimum Humidity 38    
Precipitation  
Precipitation 0.00 in 0.13 in 0.73 in (2005)
Month to date precipitation 2.39  
Year to date precipitation 11.57  
Sea Level Pressure  
Sea Level Pressure 29.91 in    
Wind  
Wind Speed 7 mph (SE)    
Max Wind Speed 16 mph    
Max Gust Speed 24 mph    
Visibility 10 miles    
Events      
T = Trace of Precipitation, MM = Missing Value Source: NWS Daily Summary

Daily Weather History Graph

Daily Weather History Graph

Search for Another Location

Airport or City:

Trip Planner

Search our weather history database for the weather conditions in past years. The results will help you decide how hot, cold, wet, or windy it might be!

Date:

Astronomy

May. 19, 2013 Rise Set
Actual Time 5:24 AM CDT 8:02 PM CDT
Civil Twilight 4:52 AM CDT 8:34 PM CDT
Nautical Twilight 4:12 AM CDT 9:14 PM CDT
Astronomical Twilight 3:27 AM CDT 10:00 PM CDT
Moon 2:02 PM CDT (5/19) 1:51 AM CDT (5/19)
Length of Visible Light 15h 42m
Length of Day
14h 38m
Waxing Gibbous, 65% of the Moon is Illuminated
May 19
Waxing Gibbous
May 24
Full
May 31
Last Quarter
Jun 8
New
Jun 16
First Quarter

Hourly Weather History & Observations

Time (CDT) Temp. Heat Index Dew Point Humidity Pressure Visibility Wind Dir Wind Speed Gust Speed Precip Events Conditions
12:15 AM 64.8 °F - 61.7 °F 90% 29.97 in 10.0 mi East 4.6 mph - N/A   Clear
12:35 AM 64.0 °F - 61.3 °F 91% 29.97 in 10.0 mi ENE 3.5 mph - N/A   Mostly Cloudy
12:55 AM 64.6 °F - 61.9 °F 91% 29.96 in 10.0 mi ESE 5.8 mph - N/A   Overcast
1:15 AM 65.5 °F - 62.1 °F 89% 29.96 in 10.0 mi ESE 5.8 mph - N/A   Scattered Clouds
1:35 AM 64.9 °F - 61.7 °F 89% 29.95 in 10.0 mi ESE 8.1 mph - N/A   Clear
1:55 AM 64.8 °F - 61.2 °F 88% 29.95 in 10.0 mi ESE 6.9 mph - N/A   Clear
2:15 AM 64.0 °F - 60.6 °F 89% 29.95 in 10.0 mi ESE 5.8 mph - N/A   Clear
2:35 AM 63.1 °F - 59.7 °F 89% 29.95 in 10.0 mi ESE 5.8 mph - N/A   Clear
2:55 AM 62.6 °F - 58.5 °F 86% 29.95 in 10.0 mi East 4.6 mph - N/A   Clear
3:15 AM 62.2 °F - 58.1 °F 86% 29.95 in 10.0 mi ESE 5.8 mph - N/A   Clear
3:35 AM 62.2 °F - 57.6 °F 85% 29.95 in 10.0 mi ESE 5.8 mph - N/A   Clear
3:55 AM 61.3 °F - 57.2 °F 86% 29.96 in 10.0 mi Calm Calm - N/A   Clear
4:15 AM 61.3 °F - 56.7 °F 85% 29.97 in 10.0 mi Calm Calm - N/A   Clear
4:35 AM 58.6 °F - 56.7 °F 93% 29.97 in 10.0 mi Calm Calm - N/A   Clear
5:15 AM 58.3 °F - 56.5 °F 94% 29.97 in 10.0 mi Calm Calm - N/A   Clear
5:35 AM 57.9 °F - 56.1 °F 94% 29.97 in 10.0 mi East 3.5 mph - N/A   Clear
5:55 AM 57.7 °F - 55.9 °F 94% 29.96 in 10.0 mi East 4.6 mph - N/A   Clear
6:15 AM 58.1 °F - 56.5 °F 94% 29.96 in 10.0 mi ESE 4.6 mph - N/A   Clear
6:35 AM 59.4 °F - 56.7 °F 91% 29.96 in 10.0 mi ESE 5.8 mph - N/A   Clear
6:55 AM 61.3 °F - 56.7 °F 85% 29.96 in 10.0 mi ESE 5.8 mph - N/A   Clear
7:15 AM 63.5 °F - 55.9 °F 76% 29.97 in 10.0 mi SE 5.8 mph - N/A   Clear
7:35 AM 65.3 °F - 55.6 °F 71% 29.99 in 10.0 mi SE 3.5 mph - N/A   Clear
7:55 AM 67.1 °F - 55.8 °F 67% 29.98 in 10.0 mi SE 4.6 mph - N/A   Clear
8:15 AM 68.9 °F - 57.4 °F 67% 29.98 in 10.0 mi SE 4.6 mph - N/A   Clear
8:35 AM 69.8 °F - 59.2 °F 69% 29.97 in 10.0 mi ESE 3.5 mph - N/A   Clear
8:55 AM 70.7 °F - 60.1 °F 69% 29.97 in 10.0 mi SE 8.1 mph - N/A   Clear
9:15 AM 72.0 °F - 61.0 °F 68% 29.97 in 10.0 mi SSE 5.8 mph - N/A   Clear
9:35 AM 73.2 °F - 61.5 °F 67% 29.97 in 10.0 mi SSW 6.9 mph - N/A   Clear
9:55 AM 74.8 °F - 62.8 °F 66% 29.98 in 10.0 mi SSW 5.8 mph - N/A   Clear
10:15 AM 75.7 °F - 63.5 °F 66% 29.97 in 10.0 mi SW 4.6 mph - N/A   Clear
10:35 AM 76.6 °F - 64.2 °F 65% 29.98 in 10.0 mi SSW 6.9 mph - N/A   Clear
10:55 AM 77.2 °F - 64.0 °F 64% 29.97 in 10.0 mi SSW 5.8 mph - N/A   Clear
11:15 AM 77.4 °F - 64.0 °F 63% 29.96 in 10.0 mi SW 5.8 mph - N/A   Scattered Clouds
11:35 AM 78.1 °F - 64.4 °F 63% 29.96 in 10.0 mi SSW 5.8 mph - N/A   Clear
11:55 AM 78.4 °F - 63.5 °F 60% 29.96 in 10.0 mi SW 8.1 mph - N/A   Scattered Clouds
12:15 PM 79.9 °F - 63.5 °F 57% 29.95 in 10.0 mi SSE 5.8 mph - N/A   Scattered Clouds
12:35 PM 80.4 °F 81.7 °F 62.8 °F 55% 29.93 in 10.0 mi SE 11.5 mph - N/A   Scattered Clouds
12:55 PM 81.9 °F 82.9 °F 62.8 °F 52% 29.91 in 10.0 mi ESE 10.4 mph 17.3 mph N/A   Clear
1:15 PM 82.9 °F 83.5 °F 61.5 °F 48% 29.91 in 10.0 mi ESE 6.9 mph - N/A   Clear
1:35 PM 83.8 °F 84.0 °F 60.4 °F 45% 29.88 in 10.0 mi SSE 9.2 mph 17.3 mph N/A   Clear
1:55 PM 84.0 °F 84.2 °F 60.8 °F 45% 29.88 in 10.0 mi SSE 11.5 mph - N/A   Clear
2:15 PM 85.1 °F 85.0 °F 60.3 °F 43% 29.88 in 10.0 mi SSE 12.7 mph - N/A   Scattered Clouds
2:35 PM 85.6 °F 85.2 °F 59.4 °F 41% 29.88 in 10.0 mi SSW 11.5 mph 17.3 mph N/A   Clear
2:55 PM 85.5 °F 84.8 °F 58.6 °F 40% 29.88 in 10.0 mi South 12.7 mph 18.4 mph N/A   Scattered Clouds
3:15 PM 85.5 °F 84.8 °F 58.5 °F 40% 29.87 in 10.0 mi SSE 12.7 mph 18.4 mph N/A   Scattered Clouds
3:35 PM 86.0 °F 85.4 °F 58.8 °F 40% 29.85 in 10.0 mi SSE 11.5 mph - N/A   Scattered Clouds
3:55 PM 86.7 °F 85.9 °F 58.3 °F 38% 29.86 in 10.0 mi South 12.7 mph 24.2 mph N/A   Scattered Clouds
4:15 PM 86.2 °F 85.4 °F 58.6 °F 39% 29.86 in 10.0 mi South 10.4 mph - N/A   Mostly Cloudy
4:35 PM 86.0 °F 85.4 °F 59.4 °F 40% 29.84 in 4.0 mi South 13.8 mph - N/A   Scattered Clouds
4:55 PM 85.6 °F 85.4 °F 59.9 °F 42% 29.85 in 7.0 mi South 12.7 mph - N/A   Scattered Clouds
5:35 PM 85.5 °F 85.2 °F 59.7 °F 42% 29.83 in 5.0 mi SSE 12.7 mph 17.3 mph N/A   Clear
5:55 PM 85.5 °F 85.4 °F 60.4 °F 43% 29.83 in 10.0 mi SSE 13.8 mph - N/A   Clear
6:15 PM 84.9 °F 84.8 °F 59.9 °F 43% 29.82 in 10.0 mi SSE 12.7 mph - N/A   Clear
6:35 PM 84.0 °F 84.4 °F 61.3 °F 46% 29.82 in 10.0 mi SSE 15.0 mph 21.9 mph N/A   Clear
6:55 PM 83.1 °F 83.7 °F 61.3 °F 48% 29.81 in 10.0 mi SSE 16.1 mph - N/A   Clear
7:15 PM 82.2 °F 83.0 °F 61.7 °F 50% 29.82 in 10.0 mi SE 13.8 mph - N/A   Clear
7:35 PM 81.5 °F 82.4 °F 61.9 °F 51% 29.83 in 10.0 mi SSE 11.5 mph - N/A   Clear
7:55 PM 80.2 °F 81.4 °F 62.2 °F 54% 29.84 in 10.0 mi SSE 11.5 mph - N/A   Clear
8:15 PM 79.0 °F - 62.2 °F 56% 29.84 in 10.0 mi SE 12.7 mph - N/A   Clear
8:35 PM 78.3 °F - 62.1 °F 57% 29.85 in 10.0 mi SE 9.2 mph - N/A   Clear
8:55 PM 77.2 °F - 61.9 °F 59% 29.85 in 10.0 mi SE 9.2 mph - N/A   Clear
9:15 PM 76.3 °F - 61.7 °F 60% 29.85 in 10.0 mi SSE 10.4 mph - N/A   Clear
9:35 PM 75.9 °F - 61.7 °F 61% 29.86 in 10.0 mi SE 9.2 mph - N/A   Clear
9:55 PM 75.0 °F - 61.5 °F 63% 29.86 in 10.0 mi SE 10.4 mph - N/A   Clear
10:15 PM 74.5 °F - 61.3 °F 63% 29.85 in 10.0 mi SE 9.2 mph - N/A   Clear
10:35 PM 74.1 °F - 61.3 °F 64% 29.85 in 10.0 mi SE 9.2 mph - N/A   Clear
11:15 PM 73.4 °F - 61.3 °F 66% 29.85 in 10.0 mi SE 8.1 mph - N/A   Clear
11:35 PM 73.0 °F - 61.3 °F 67% 29.85 in 10.0 mi SSE 8.1 mph - N/A   Clear
11:55 PM 72.7 °F - 61.3 °F 67% 29.84 in 10.0 mi SSE 9.2 mph - N/A   Scattered Clouds